Weather Roundup
Issued by NWS Springfield, MO

Home | Current Version | Previous Version | Text Only | Print | Product List | Glossary Off
Versions: 1 2 3 4 5 6 7 8 9 10 11 12 13 14 15 16 17 18 19 20 21 22 23 24 25 26 27 28 29 30 31 32 33 34 35 36 37 38 39 40 41 42 43 44 45 46 47 48 49 50

000
NZUS99 KSGF 080207
HRRSGF

HOURLY WEATHER
NATIONAL WEATHER SERVICE SPRINGFIELD MO
800 PM CST WED DEC 07 2016

......SGF CWA......

CITY           SKY/WX    TMP DP  RH WIND       PRES   REMARKS
SPRINGFIELD    FLURRIES  29  25  85 N9        30.34R WCI  20
JOPLIN         CLOUDY    29  25  85 N6        30.40R WCI  23
WEST PLAINS    CLOUDY    34  19  54 N8        30.30R WCI  27
ROLLA          LGT SNOW  28  25  88 NW10      30.32R FOG     WCI  19
OSAGE BEACH    FLURRIES  28  24  85 NW6       30.38R WCI  22
BRANSON        CLOUDY    32  18  55 N12       30.32R WCI  23

......SURROUNDING SGF CWA......

CITY           SKY/WX    TMP DP  RH WIND       PRES   REMARKS
CHANUTE        MOCLDY    25  21  85 N9        30.43R WCI  15
PARSONS        MOCLDY    27  23  86 N7        30.43R WCI  19
COFFEYVILLE    CLEAR     26  23  88 N9        30.43R WCI  17
EMPORIA        CLEAR     20  17  88 NW8       30.43R WCI  10
GROVE OK       CLOUDY    32  28  86 N6        30.40R WCI  26
ROGERS AR      CLOUDY    30  24  78 N9        30.34R WCI  22
SILOAM SPRINGS CLOUDY    34  18  51 N13       30.33R WCI  25
HARRISON AR    CLOUDY    33  18  53 N10G16    30.30R WCI  25
NEAR YELLVILLE CLOUDY    37  16  41 N14       30.29R WCI  29

......KANSAS AND MISSOURI......

CITY           SKY/WX    TMP DP  RH WIND       PRES   REMARKS
KANSAS CTY INT CLEAR     21   9  59 NW6       30.41R WCI  13
DOWNTOWN KC    CLEAR     24  12  60 NW8       30.43R WCI  15
COLUMBIA       CLOUDY    28  20  71 W8        30.35R WCI  20
SEDALIA        CLOUDY    27  20  75 NW9       30.39R WCI  18
ST JOSEPH      CLEAR     19  10  68 W7        30.44R WCI  10
ST LOUIS       CLOUDY    35  17  47 NW15G21   30.30R WCI  25
SPIRIT OF STL  CLOUDY    33  19  56 NW10      30.31R WCI  25
KIRKSVILLE     CLEAR     22  11  62 W14       30.34R WCI   9
WICHITA        CLEAR     24  18  77 N14       30.45R WCI  12
TOPEKA         CLEAR     22  12  65 W6        30.46R WCI  14
OLATHE         CLEAR     23  14  68 N8        30.41R WCI  14

......TENNESSEE......

CITY           SKY/WX    TMP DP  RH WIND       PRES   REMARKS
MEMPHIS        CLOUDY    43  33  68 N5        30.23R
NASHVILLE      CLOUDY    42  27  55 NW9       30.20R

......ARKANSAS.......

CITY           SKY/WX    TMP DP  RH WIND       PRES   REMARKS
FAYETTEVILLE   CLOUDY    33  19  56 N8        30.32R WCI  26
FT SMITH       CLOUDY    36  32  85 N10       30.33R WCI  28
LITTLE ROCK    CLOUDY    40  31  70 N9        30.28R WCI  34

......OKLAHOMA.......

CITY           SKY/WX    TMP DP  RH WIND       PRES   REMARKS
TULSA          PTCLDY    32  25  75 N18G24    30.40R WCI  20
PONCA CITY     CLOUDY    27  21  78 N8        30.43R WCI  19
MCALESTER      CLOUDY    37  29  72 N13       30.34R WCI  29
OKLAHOMA CITY  MOCLDY    33  23  66 N16G23    30.36R WCI  23

......IOWA............

CITY           SKY/WX    TMP DP  RH WIND       PRES   REMARKS
DES MOINES     PTCLDY    21   8  57 NW22      30.32R WCI   5
QUAD CITIES    CLOUDY    25  14  63 W20G28    30.23R WCI  11

......ILLINOIS........

CITY           SKY/WX    TMP DP  RH WIND       PRES   REMARKS
QUINCY         CLEAR     26  15  63 NW16      30.30R WCI  14
CHICAGO        CLOUDY    23  15  71 W23G33    30.13R WCI   7



USA.gov is the U.S. government's official web portal to all federal, state and local government web resources and services.